Location: Arclight Observatory
(36.5667°N, 87.3333°W)
Time: 12:28:47
(UTC-05:00)

ISS - Visible Passes

Search period start: 20 April 2014 00:00
Search period end: 30 April 2014 00:00
Orbit: 413 x 419 km, 51.6° (Epoch: 20 April)

Date Brightness Start Highest point End Pass type
(mag) Time Alt. Az. Time Alt. Az. Time Alt. Az.
20 Apr -1.0 20:29:02 10° NNW 20:31:13 16° NNE 20:33:07 11° ENE visible
20 Apr -0.5 22:04:55 10° NW 22:06:00 19° NW 22:06:00 19° NW visible
21 Apr -2.9 21:16:24 10° NW 21:19:26 56° NNE 21:19:26 56° NNE visible
22 Apr -2.2 20:27:57 10° NNW 20:31:03 33° NE 20:32:52 19° E visible
22 Apr -0.3 22:05:00 10° WNW 22:05:45 14° W 22:05:45 14° W visible
23 Apr -2.4 21:15:53 10° WNW 21:19:03 40° SW 21:19:10 40° SW visible
24 Apr -3.3 20:27:00 10° NW 20:30:21 81° SW 20:32:35 19° SE visible
25 Apr -0.7 21:16:15 10° W 21:17:52 13° SW 21:18:54 12° SSW visible
26 Apr -1.3 20:26:22 10° WNW 20:29:08 24° SW 20:31:53 10° S visible
